Regional Weather Roundup
Issued by NWS Wakefield, VA

Home | Current Version | Previous Version | Text Only | Print | Product List | Glossary On
Versions: 1 2 3 4 5 6 7 8 9 10 11 12 13 14 15 16 17 18 19 20 21 22 23 24 25 26 27 28 29 30 31 32 33 34 35 36 37 38 39 40 41 42 43 44 45 46 47 48 49 50
000
ASUS41 KAKQ 260214
RWRAKQ

REGIONAL WEATHER ROUNDUP
NATIONAL WEATHER SERVICE WAKEFIELD VA
1000 PM EDT MON MAY 25 2015

Note: "fair" indicates few or no clouds below 12,000 feet with no
significant weather and/or obstructions to visibility. * = Denotes
station may not report precipitation (e.g., rain,snow,etc.),
thunder or fog.

VAZ042-051-052>054-056-260300-
NORTHERN VIRGINIA

CITY           SKY/WX    TMP DP  RH WIND       PRES   REMARKS
WASH NATIONAL  MOCLDY    74  63  68 S7        30.22R
DULLES         PTCLDY    74  56  53 S7        30.21R
FORT BELVOIR   CLEAR     69  60  74 SE2       30.21R
QUANTICO       CLEAR     75  63  66 SW9       30.22R
FREDERICKSBRG* CLEAR     72  60  66 S5        30.22R
STAFFORD*      CLEAR     69  57  66 S3        30.26R
WARRENTON      CLEAR     73  60  63 S5        30.21R
CULPEPER*      CLEAR     67  58  71 CALM      30.22R
MANASSAS*      NOT AVBL
LEESBURG*      CLEAR     75  61  60 S10G16    30.21S
WINCHESTER     CLEAR     73  50  43 S6        30.19R
FRONT ROYAL*   FAIR      73  55  53 SW5       30.19R
LURAY*         FAIR      72  59  64 SW6       30.21S
$$

VAZ048-049-060>072-079>083-260300-
CENTRAL AND SOUTH CENTRAL VIRGINIA

CITY           SKY/WX    TMP DP  RH WIND       PRES   REMARKS
RICHMOND       PTCLDY    71  57  61 SE3       30.25R
CHESTERFIELD*  NOT AVBL
PETERSBURG*    CLEAR     63  59  87 CALM      30.26R
HANOVER        CLEAR     71  57  61 VRB3      30.26R
TAPPAHANNOCK*  CLEAR     69  55  60 CALM      30.25R
QUINTON*       FAIR      73  58  59 S7        30.25R
CHARLOTTSVILLE CLEAR     69  55  60 S6        30.22R
GORDONSVILLE*  FAIR      65  58  78 CALM      30.22R
ORANGE*        CLEAR     68  57  68 CALM      30.24R
LOUISA*        CLEAR     73  57  56 S3        30.23R
BUMPASS*       FAIR      69  58  68 CALM      30.23S
FARMVILLE*     CLEAR     67  57  70 CALM      30.24R
CREWE*         FAIR      63  58  84 CALM      30.25S
FORT PICKETT*  FAIR      66  57  72 S5        30.25R
CHASE CITY*    FAIR      67  60  78 CALM      30.25S
CLARKSVILLE*   FAIR      63  59  88 CALM      30.25S
SOUTH HILL*    CLEAR     64  57  80 CALM      30.31R
LAWRENCEVILLE* FAIR      70  57  64 CALM      30.26R
EMPORIA*       CLEAR     66  57  72 SE5       30.28R
$$

VAZ088>098-260300-
SOUTHEAST VIRGINIA

CITY           SKY/WX    TMP DP  RH WIND       PRES   REMARKS
NORFOLK        CLEAR     72  57  59 S13       30.28R
VIRGINIA BEACH PTCLDY    72  60  66 S7        30.29R
NORFOLK NAVAL  PTCLDY    78  57  48 VRB6      30.29R
WEST POINT*    CLEAR     76  52  42 S8        30.27R
SALUDA*        FAIR      70  60  72 SE8       30.26R
NEWPORT NEWS   CLEAR     78  55  44 S10       30.27R
LANGLEY AFB    CLEAR     73  57  57 S10       30.27R
FORT EUSTIS    CLEAR     74  56  53 S10       30.25R
WILLIAMSBURG*  CLEAR     77  57  50 S8G16     30.28R
HR EXEC AP*    FAIR      72  55  56 S9        30.30R
FRANKLIN*      CLEAR     70  60  71 S7        30.28R
WAKEFIELD      CLEAR     72  58  61 VRB5      30.27R
$$

VAZ020-022-025-037-045-260300-
WEST CENTRAL AND SOUTHWEST VIRGINIA

CITY           SKY/WX    TMP DP  RH WIND       PRES   REMARKS
STAUNTON*      CLEAR     70  54  56 S5        30.25S
WAYNESBORO*    FAIR      70  55  59 S7        30.25S
HOT SPRINGS VA CLEAR     63  53  70 S12       30.33R
LYNCHBURG      CLEAR     64  57  78 CALM      30.27R
DANVILLE       CLEAR     65  58  78 CALM      30.25R
SOUTH BOSTON*  FAIR      66  58  75 MISG      30.25R
MARTINSVILLE   CLEAR     63  57  81 CALM      30.28R
ROANOKE        CLEAR     72  56  57 CALM      30.27R
BLACKSBURG     CLEAR     67  55  66 S3        30.32S
DUBLIN*        CLEAR     68  57  68 CALM      30.30R
MARION*        MOCLDY    71  55  58 N3        30.31S
HILLSVILLE*    CLEAR     65  56  72 S3        30.32R
RICHLANDS*     FAIR      70  58  66 SE5       30.26S
WISE*          PTCLDY    70  54  56 S6        30.25F
ABINGDON*      MOCLDY    75  57  54 CALM      30.24S
$$

MDZ021>025-VAZ099-100-260300-
SOUTHERN MARYLAND AND THE DELMARVA PENINSULA

CITY           SKY/WX    TMP DP  RH WIND       PRES   REMARKS
PATUXENT RIVER CLEAR     70  58  65 S8        30.24R
BAY BRIDGE APT   N/A    N/A N/A N/A S10       30.23R
LEONARDTOWN    CLEAR     68  57  68 SE5       30.26R
DOVER          CLEAR     70  55  60 S12       30.22R
GEORGETOWN     CLEAR     68  54  60 S13       30.27R
EASTON         CLEAR     73  58  59 S10G16    30.28R
CAMBRIDGE      CLEAR     72  55  56 S6        30.25R
SALISBURY      CLEAR     66  56  70 S10       30.27R
OCEAN CITY     CLEAR     66  59  78 VRB7      30.28R
WALLOPS ISLAND CLEAR     65  60  84 S13G22    30.29R
ACCOMACK*      CLEAR     68  61  77 S13       30.28R
$$

NCZ012>017-030>032-260300-
NORTH CENTRAL AND EASTERN NORTH CAROLINA

CITY           SKY/WX    TMP DP  RH WIND       PRES   REMARKS
ROANOKE RAPIDS FAIR      70  55  60 S7        30.27R
RALEIGH        PTCLDY    74  55  51 S5        30.27R
ELIZABETH CITY CLEAR     70  60  70 S8        30.31R
AHOSKIE*       CLEAR     67  60  78 S5        30.29R
EDENTON*       CLEAR     71  62  74 S9G16     30.31R
CURRITUCK*     CLEAR     70  58  66 S5        30.31R
KILL DEVIL HLS CLEAR     72  61  70 S6        30.31S
MANTEO         CLEAR     73  63  70 SW13      30.33R
CAPE HATTERAS  PTCLDY    73  61  65 S12       30.33R
TARBORO*       FAIR      73  59  61 S7        30.29R
GOLDSBORO      CLEAR     71  61  70 VRB1      30.28R
WASHINGTON     CLEAR     70  60  70 S6        30.31R
GREENVILLE     CLEAR     72  61  68 S8        30.30R
NEW BERN       CLEAR     68  60  75 S3        30.33R
WILMINGTON     CLEAR     71  63  75 SE3       30.30R
$$

VAZ048-260300-
ELSEWHERE

CITY           SKY/WX    TMP DP  RH WIND       PRES   REMARKS
HARRISBURG PA  PTCLDY    76  59  55 S8        30.17R
BALTIMORE      PTCLDY    71  61  70 SE5       30.21R
ANNAPOLIS      CLEAR     70  60  70 S15G25    30.22R
ANDREWS AFB    CLEAR     70  61  73 S9        30.22R
PHILADELPHIA   PTCLDY    75  59  57 S9        30.22R
HENDERSON NC   CLEAR     68  54  60 CALM      30.27R
GREENSBORO     PTCLDY    72  57  59 S6        30.26R
ROCKY MOUNT    CLEAR     72  60  66 S6        30.29R
$$

VAZ100-260300-
MARINE

STATION/POSITION TIME  TEMP    WIND        PRES    WAVE   SWELL
                       AIR SEA DIR/SP/G            HT/PER HT/PER
                 (UTC) (F)     (DEG/KT/KT) (MB)    (FT/S) (FT/S)
BRANDYWINE LGT   0100   69 64  190/ 14/ 18 1023.9S
CAPE MAY NJ      0100   67 68  170/ 11/ 15 1023.8F
LEWES DE         0100   71 64  180/  7/ 12 1023.9F
15NM E FENWICK I 0150   63 61              1024.9R   2/ 4
OCEAN-CITY-INLET 0100   64 64  210/ 10/ 11 1024.7F
WACHAPREAGUE VA  0100   69 75  190/ 14/ 18 1024.8F
THOMAS POINT MD  0200   70 68  170/ 23/ 26 1023.7R
GOOSES REEF MD   0200   69 67  180/ 17/ 19 1024.6R   2/ 3
SOLOMONS ISLAND  0100      70                N/A
BISHOPS HEAD MD  0100   71 71  160/ 20/ 23 1023.4F
PINEY POINT MD   0100          180/ 13/ 15   N/A
CAMBRIDGE MD     0100   72 70  180/  7/ 11 1023.5F
LEWISETTA VA     0100   71 71              1023.5R
RAPPAHANNOCK LGT 0100          150/ 18/ 21 1024.8F
STINGRAY PT      0200   71 70  180/ 16/ 19 1024.3R   2/ 3
YORK RVR RNG VA  0100   72     160/ 18/ 21 1023.6R
YORKTOWN VA      0100   76 71  180/  7/ 11 1024.0R
JAMESTOWN VA     0200   74 74  180/ 12/ 14 1023.9R
DOMINION TERM VA 0100   76     170/ 11/ 14 1024.6R
KIPTOPEKE VA     0100      75  170/ 19/ 22   N/A
CHES BAY BRIDGE  0100   72 70  150/ 10/ 13 1024.6R
CAPE HENRY VA    0100   69     150/ 10/ 13 1023.9S
CHESAPEAKE LGHT  0100   68     170/ 22/ 24 1025.5F
WILLOUBY STN VA  0100   75     170/ 13/ 14 1025.3R
CAPE HENRY BUOY  0128      66                N/A     3/ 4
1ST LANDING BUOY 0200      70              1025.1R
CAPE CHARLES BUO 0126      66                N/A     3/ 4   2/ 7
OFFSHORE WE BUOY 0111      67                N/A     2/ 3   2/ 8
64NM E OF VA BCH 0150   67 64  160/  8/ 10 1026.5R   1/ 8   2/ 8
DUCK PIER NC     0100   72 65  170/ 13/ 17 1025.0R
44100 DUCK FRF   0124      63                N/A     2/ 9
44056 DUCK FRF   0111      65                N/A     1/ 7
OREGON INLET NC  0100   73 77  180/ 10/ 12 1026.5S
HATTERAS NC      0100   74 76  160/ 11/ 14 1026.3R
DIAMOND SHLS NC  0150   74 76  170/ 14/ 16 1027.0R   2/ 7   2/ 7
CAPE LOOKOUT NC  0200   74     150/ 13/ 14 1026.4R
$$



USA.gov is the U.S. government's official web portal to all federal, state and local government web resources and services.